Other Public Products
Issued by NWS Grand Forks, ND

Home | Current Version | Previous Version | Graphics & Text | Print | Product List | Glossary On
Versions: 1 2 3 4 5 6 7 8 9 10 11 12 13 14 15 16 17 18 19 20 21 22 23 24 25 26 27 28 29 30 31 32 33 34 35 36 37 38 39 40 41 42 43 44 45 46 47 48 49 50
000
FPUS83 KFGF 242031
OPUFGF
PRAIRIE TO PINES WEATHER ROUNDUP
NATIONAL WEATHER SERVICE EASTERN NORTH DAKOTA/GRAND FORKS ND
300 PM CDT SAT JUN 24 2017

 **SATELLITE DATA USED TO AUGMENT SKY COVER AT AUTOMATED STATIONS**
 *****  WEATHER ACROSS EASTERN NORTH DAKOTA  *****

CITY           SKY/WX    TMP DP  RH WIND       PRES   REMARKS
GRAND FORKS    LGT RAIN  55  51  86 NW17G28   30.06R
GRAND FORKS AF CLOUDY    55  48  77 N18G26    30.07R
GRAND CITY NWS NOT AVBL
BUXTON           N/A     57  52  84 NW22        N/A
DEVILS LAKE    CLOUDY    55  44  66 N23G29    30.14R
FARGO          CLOUDY    59  46  62 NW17G28   30.07R
WAHPETON ARPT  CLOUDY    63  41  45 NW18      30.08S
$$

 *****  WEATHER ACROSS CENTRAL AND WESTERN NORTH DAKOTA  *****

CITY           SKY/WX    TMP DP  RH WIND       PRES   REMARKS
JAMESTOWN      CLOUDY    56  44  64 NW24      30.14R
BISMARCK       CLOUDY    61  41  47 N18G28    30.23R
MINOT          CLOUDY    57  41  55 NW15      30.22S
MINOT AFB      CLOUDY    57  40  53 NW17      30.21S
GARRISON         N/A     57  40  52 N17G28    30.22S
WILLISTON      PTSUNNY   66  35  31 N16G28    30.28F
DICKINSON      FAIR      64  30  27 N18G31    30.25S
HETTINGER      FAIR      68  30  24 NW18G31   30.26F
$$

 *****  OTHER OBSERVATIONS NORTHEAST NORTH DAKOTA  *****

CITY           SKY/WX    TMP DP  RH WIND       PRES   REMARKS
WALHALLA       NOT AVBL
LANGDON        CLOUDY    52  48  87 N20G29    30.12R
CAVALIER       NOT AVBL
GRAFTON        CLOUDY    54  48  82 NW21G28   30.09R
CANDO          NOT AVBL
FORT TOTTEN      N/A     55  45  68 NW10      29.95S
ROLLA            N/A     52  46  82 N20       30.17R
RUGBY          NOT AVBL
 ***** THE ABOVE OBSERVATIONS ARE NON NWS ARE NOT QUALITY
        CONTROLLED AND MAY MIS-REPORT RAIN FOR SNOW...
$$

 *****  OTHER OBSERVATIONS SOUTHEAST NORTH DAKOTA *****

CITY           SKY/WX    TMP DP  RH WIND       PRES   REMARKS
COOPERSTOWN    CLOUDY    59  46  63 NW22G33   30.11S
VALLEY CITY    CLOUDY    59  46  63 NW21G30   30.13R
OAKES          NOT AVBL
GWINNER        CLOUDY    61  43  51 NW17G29   30.12R
SHEYENNE NWR     N/A     62  43  49 NW14      29.95S
BUFFALO          N/A     60  43  52 NW21        N/A
WYNDMERE       NOT AVBL
 ***** THE ABOVE OBSERVATIONS ARE NON NWS ARE NOT QUALITY
       CONTROLLED AND MAY MIS-REPORT RAIN FOR SNOW...
$$

  *****  WEATHER ACROSS NORTHERN MINNESOTA  *****

CITY           SKY/WX    TMP DP  RH WIND       PRES   REMARKS
FLAG ISLAND    PTSUNNY   57  50  77 N7        29.97R
WARROAD        CLOUDY    55  52  88 W7        30.00R
ROSEAU         PTSUNNY   59  52  77 NW3       29.99S
HALLOCK        CLOUDY    54  52  94 NW22G28   30.03R FOG
THF RVR FALLS  LGT RAIN  54  54 100 NW15G21   30.02S FOG
HALSTAD          N/A     55  52  88 NW20        N/A
FOSSTON        RAIN      54  50  87 W10       30.04R
BAUDETTE       CLOUDY    61  50  67 N10       29.97R
WASKISH        CLOUDY    61  48  63 W10       29.98R
CROOKSTON      CLOUDY    54  54 100 NW20G26   30.05R
$$
  *****  WEATHER ACROSS CENTRAL AND WEST MINNESOTA  *****

CITY           SKY/WX    TMP DP  RH WIND       PRES   REMARKS
BEMIDJI        CLOUDY    59  45  60 W16       30.01R
PARK RAPIDS    FAIR      62  43  49 NW18      30.01S
WADENA         LGT RAIN  55  48  76 NW6       30.03F
DETROIT LAKES  LGT RAIN  54  50  87 NW14      30.07R
MOORHEAD       DRIZZLE   55  48  76 NW9G16    30.08R
FERGUS FALLS   CLOUDY    59  46  63 NW23      30.05S
ELBOW LAKE     CLOUDY    58  50  76 NW12G17   30.08S
MORRIS MN      FAIR      61  46  59 NW15      30.07F
STAPLES        FAIR      54  46  76 W6        30.03F
WHEATON        FAIR      64  39  39 NW17G26   30.09F
$$
  *****  WEATHER ELSEWHERE ACROSS MINNESOTA  *****

CITY           SKY/WX    TMP DP  RH WIND       PRES   REMARKS
DULUTH         PTSUNNY   60  47  61 NW13G18   29.95R
INTRNTL FALLS  CLOUDY    62  47  57 W8        29.93S
ELY            CLOUDY    59  46  63 W8G17     29.92R
CLOQUET        CLOUDY    63  41  45 W9G18     29.96S
BRAINERD       PTSUNNY   63  42  46 NW13G20   30.00S
HIBBING        CLOUDY    57  47  69 NW15      29.96R
ALEXANDRIA     PTSUNNY   58  45  62 NW21G29   30.07R
SAINT CLOUD    FAIR      63  44  50 NW17G23   30.02S
MINNEAPOLIS    PTSUNNY   59  49  69 W14G23    30.03R
$$

  *****  WEATHER ACROSS SOUTH DAKOTA  *****

CITY           SKY/WX    TMP DP  RH WIND       PRES   REMARKS
SIOUX FALLS    PTSUNNY   70  42  36 NW22G35   30.11S
BROOKINGS      PTSUNNY   64  41  42 NW24G30   30.13R
WATERTOWN      PTSUNNY   61  41  47 NW18G26   30.13R
HURON          PTSUNNY   67  41  38 NW23G37   30.14S
SISSETON         N/A     65  40  39 NW24G32   30.09R
ABERDEEN       FAIR      64  41  42 NW26G35   30.16R
MITCHELL       FAIR      74  35  24 NW23G36   30.15R
PIERRE         FAIR      72  36  26 NW29G36   30.17F
MOBRIDGE       FAIR      68  37  32 NW23G37   30.17S
RAPID CITY     FAIR      75  30  19 NW18G32   30.26F
$$

  *****  SOME WEATHER IN NEARBY STATES *****

CITY           SKY/WX    TMP DP  RH WIND       PRES   REMARKS
GLASGOW MT     PTSUNNY   70  33  25 N12       30.29F
GREAT FALLS MT FAIR      71  36  27 E8        30.31F
CHEYENNE WY    FAIR      68  39  34 E8        30.35F
SCOTTSBLUFF NE FAIR      74  35  24 NW8       30.29F
OMAHA NE       FAIR      81  38  21 W21G30    30.14F
DES MOINES IA  FAIR      77  40  26 W20G31    30.11F
DAVENPORT IA   FAIR      72  43  35 NW23G31   30.09F
CHICAGO IL     FAIR      75  44  33 W18G28    29.99S
EAU CLAIRE WI  CLOUDY    64  40  41 W15       29.97F
LA CROSSE WI   PTSUNNY   70  43  37 NW15G22   30.01S
$$

  *****  SOME NATIONAL WEATHER *****

CITY           SKY/WX    TMP DP  RH WIND       PRES   REMARKS
LA GUARDIA NY  FAIR      86  53  32 W21G29    29.76R
RALEIGH NC     PTSUNNY   91  74  57 SW8       29.92F HX 100
ATLANTA GA     PTSUNNY   82  73  74 SW8       30.01F
NEW ORLEANS LA LGT RAIN  76  74  93 SW7       30.04R
OKLAHOMA CITY  FAIR      84  44  24 E17       30.18F
ALBUQUERQUE NM CLOUDY    85  52  32 S10       30.20F
SALT LAKE CITY FAIR      86  34  15 W9        30.19F
LOS ANGELES CA PTSUNNY   68  60  75 W9        29.90F
BOISE ID       FAIR      82  34  17 NW6       30.17F
SEATTLE WA     FAIR      83  57  41 NW8       30.11F
$$

*** WEATHER ACROSS MANITOBA...SASKATCHEWAN AND ONTARIO ***
                ***ONTARIO***

CITY           SKY/WX    TMP DP  RH WIND       PRES   REMARKS
GERALDTON      PTSUNNY   68  45  42 VRB7      29.87S
THUNDER BAY    PTSUNNY   63  52  67 W8        29.87S
SIOUX LOOKOUT  TSTM      54  52  94 N8        29.92S
TORONTO        MOSUNNY   75  52  43 W18G28    29.81R
BIG TROUT LK   PTSUNNY   54  37  54 N8        30.03S
PICKLE LAKE    PTSUNNY   63  45  51 N12       29.93R
DRYDEN         PTSUNNY   55  54  94 W9        29.93S
KENORA         LGT RAIN  59  52  77 NE8       29.97R
$$
                *** MANITOBA***

CITY           SKY/WX    TMP DP  RH WIND       PRES   REMARKS
BRANDON        PTSUNNY   57  43  58 N16       30.17S
DAUPHIN        LGT RAIN  54  46  76 N15       30.20R
ISLAND LAKE    PTSUNNY   61  37  41 N10       30.09S
PILOT MOUND      N/A     48  43  81 NW18G28     N/A
THE PAS        PTSUNNY   54  45  71 W9        30.21S
THOMPSON       CLOUDY    61  36  39 VRB7      30.11F
WINNIPEG       LGT RAIN  52  46  82 N16G24    30.08R
LYNN LAKE      MOSUNNY   63  30  29 N13G21    30.16R
CHURCHILL      MOSUNNY   55  39  54 N9        30.09R
GILLAM         MOSUNNY   64  41  42 NW3       30.06F
$$
                ***SASKATCHEWAN***

CITY           SKY/WX    TMP DP  RH WIND       PRES   REMARKS
ESTEVAN        PTSUNNY   61  37  41 N21G28    30.26S
KINDERSLEY     PTSUNNY   68  41  37 W8        30.26F
LLOYDMINSTER   PTSUNNY   70  43  37 NW9G17    30.23F
PRINCE ALBERT  PTSUNNY   66  39  37 N7        30.24F
REGINA         MOSUNNY   64  37  36 N14G28    30.27F
YORKTON        MOSUNNY   55  45  67 N9        30.24R


USA.gov is the U.S. government's official web portal to all federal, state and local government web resources and services.